[[{"header":{"parameterUnit":"m.s-1","parameterCategory":2,"la1":30.2991,"la2":30.254,"lo1":-89.0895,"lo2":-89.0444,"dy":0.0017,"dx":0.0017,"nx":28,"ny":28,"refTime":"2026-02-11T09:00:00:Z","depth":"0","parameterNumber":2,"parameterNumberName":"U-component_of_CURRENTS"},"data":[0,0,0,0,0,0,0,0,0,0,0,0,0,0,0,0,0,0,0,0,0,0,0,0,0,0,0,0,0,0,0,0,0,0,0,0,0,0,0,0,0,0,0,0,0,0,0,0,0,0,0,0,0,0,0,0,0,0,0.2863,0.2863,0,0.2911,0.2911,0.2911,0.2895,0.2894,0.2894,0.2893,0.2891,0.2891,0.2892,0,0,0,0,0,0,0,0,0,0,0,0,0,0.2744,0.2746,0.2863,0.2864,0.2865,0.2911,0.2911,0.2911,0.2895,0.2894,0.2893,0.2893,0.2891,0.2891,0.2892,0,0,0,0,0,0,0,0,0,0,0,0,0,0.279,0.2747,0.2862,0.2865,0.2866,0.2911,0.2911,0.2911,0.2895,0.2894,0.2893,0.2892,0.289,0.2891,0.2892,0.2917,0,0,0.2895,0.2895,0,0,0,0,0,0,0,0,0.2788,0.2794,0.2864,0.2865,0.2866,0.29,0.2869,0.2912,0.2895,0.288,0.2893,0.2892,0.2893,0.2893,0.2899,0.2917,0.2917,0.2895,0.2895,0.2896,0.2896,0,0,0,0,0,0,0,0.2784,0.2792,0.2877,0.2865,0.2867,0.286,0.2865,0.2877,0.2887,0.2881,0.2881,0.2893,0.2892,0.2898,0.2899,0.2917,0.2895,0.2895,0.2896,0.2896,0.2993,0.2995,0,0,0,0,0,0,0.2789,0.2789,0.2876,0.2879,0.2828,0.2863,0.2869,0.2886,0.2888,0.2889,0.2894,0.2893,0.2897,0.2898,0.2899,0.2962,0.2896,0.2896,0.2897,0.2991,0.2994,0.2996,0,0,0,0,0,0,0.2787,0.2797,0.2874,0.2838,0.2848,0.2867,0.2887,0.2888,0.2898,0.2899,0.2898,0.2903,0.2897,0.2898,0.2927,0.296,0.2897,0.2898,0.2989,0.2992,0.2995,0.3067,0,0,0,0,0,0,0.2783,0.2796,0.2814,0.2839,0.285,0.2917,0.2888,0.289,0.2909,0.2907,0.2907,0.2905,0.2896,0.2926,0.2928,0.296,0.2898,0.2986,0.299,0.2994,0.3062,0.3072,0.3081,0,0,0,0,0,0.2779,0.2809,0.2815,0.2825,0.2874,0.2919,0.2925,0.2931,0.291,0.2931,0.293,0.2905,0.2951,0.2928,0.293,0.2964,0.2984,0.2989,0.2994,0.3058,0.307,0.308,0,0,0,0,0,0,0.2764,0.2811,0.2818,0.286,0.2895,0.2918,0.2941,0.2938,0.2953,0.2945,0.2932,0.2932,0.2972,0.2962,0.2936,0.3005,0.2964,0.297,0.3013,0.3024,0.3033,0.3057,0.2899,0,0,0,0,0,0.2772,0.2807,0.2849,0.2883,0.2904,0.2922,0.294,0.2945,0.2961,0.2966,0.2966,0.2971,0.2994,0.3002,0.3017,0.3053,0.3092,0.3078,0.3087,0.3095,0.3117,0.3184,0.3201,0.3011,0.3011,0.3011,0,0,0.2775,0.2807,0.2825,0.2882,0.2906,0.2948,0.2929,0.2965,0.2994,0.2964,0.2999,0.3005,0.3012,0.3056,0.3072,0.305,0.3181,0.3101,0.3107,0.3126,0.319,0.3209,0.3225,0.3014,0.3014,0.3013,0,0,0.2797,0.2829,0.2866,0.2902,0.2952,0.2971,0.2984,0.3016,0.3027,0.3065,0.3056,0.3088,0.3106,0.3131,0.3142,0.3215,0.323,0.3213,0.3278,0.3342,0.3359,0.3373,0.3497,0.3522,0.3216,0.3216,0.3216,0,0.2796,0.2858,0.2883,0.293,0.297,0.2983,0.3033,0.3052,0.3085,0.3107,0.3085,0.315,0.3149,0.3221,0.3247,0.3238,0.3294,0.323,0.3355,0.337,0.3384,0.3506,0.3533,0.322,0.3219,0.3219,0.3219,0,0.2849,0.2902,0.293,0.2996,0.3035,0.3087,0.3122,0.3154,0.3162,0.3179,0.3245,0.3259,0.3297,0.3306,0.3298,0.3399,0.342,0.336,0.3325,0.3408,0.3532,0.3558,0.3226,0.3224,0.3223,0.3222,0,0,0.2848,0.2948,0.2958,0.302,0.3082,0.3131,0.3176,0.3244,0.33,0.331,0.3386,0.3421,0.3422,0.3437,0.3439,0.3499,0.3655,0.3478,0.3479,0.3602,0.3857,0.3862,0.3892,0.3611,0.3615,0.3618,0.3923,0,0.2892,0.3006,0.3025,0.3133,0.3217,0.3236,0.3289,0.3339,0.3382,0.3453,0.3464,0.3537,0.3472,0.3519,0.3558,0.363,0.372,0.3582,0.3759,0.3766,0.3759,0.392,0.3763,0.4019,0.3949,0.3953,0.3957,0,0.2962,0.3035,0.315,0.3264,0.3293,0.3337,0.3455,0.3502,0.3575,0.3601,0.3645,0.3664,0.3756,0.3686,0.3847,0.3761,0.3827,0.3877,0.3888,0.3884,0.3819,0.3916,0.4069,0.3941,0.3997,0.3994,0.3991,0,0.3039,0.3137,0.3242,0.3281,0.3385,0.3426,0.3473,0.3555,0.3629,0.3716,0.3793,0.3846,0.3936,0.398,0.4062,0.3973,0.4264,0.414,0.4224,0.4228,0.4126,0.4113,0.417,0.4285,0.4284,0.4284,0.4283,0,0.3139,0.3238,0.3286,0.336,0.3473,0.3505,0.3631,0.3676,0.377,0.3855,0.388,0.3987,0.4017,0.4157,0.4166,0.4313,0.4347,0.4302,0.4316,0.4152,0.4139,0.4042,0.3986,0.4295,0.4292,0.429,0.4288,0,0.3278,0.3306,0.3432,0.3505,0.3534,0.3621,0.3728,0.3803,0.389,0.4011,0.4051,0.4173,0.433,0.4405,0.455,0.4502,0.4497,0.465,0.4494,0.4482,0.4351,0.4305,0.4296,0.4166,0.4774,0.4777,0.4778,0,0.3401,0.3464,0.3536,0.3576,0.3616,0.3725,0.378,0.386,0.392,0.4107,0.4153,0.4385,0.4491,0.4754,0.4742,0.4842,0.4643,0.4748,0.4516,0.4391,0.435,0.4151,0.4024,0.4446,0.4444,0.4444,0.4443,0,0.3586,0.3567,0.363,0.3688,0.3739,0.382,0.3891,0.3963,0.4024,0.4147,0.4283,0.4415,0.4651,0.4676,0.484,0.4841,0.4508,0.4731,0.462,0.4145,0.3914,0.3777,0.4245,0.4435,0.4435,0.4436,0.4436,0.4437,0.3685,0.3723,0.3716,0.378,0.3825,0.3851,0.3885,0.3936,0.4038,0.4111,0.4282,0.4376,0.4513,0.4705,0.4712,0.4583,0.4514,0.4387,0.4373,0.4206,0.3965,0.4462,0.4628,0.463,0.4631,0.4633,0.4634,0,0.3747,0.374,0.3798,0.381,0.3826,0.3847,0.3891,0.3866,0.3907,0.4006,0.4109,0.4185,0.4293,0.4355,0.435,0.4213,0.3984,0.4093,0.374,0.365,0.4128,0.3991,0.4,0.4001,0.4001,0.4001,0.4001,0.4001,0.3758,0.3768,0.3767,0.3772,0.378,0.3729,0.3724,0.3694,0.3715,0.3697,0.3677,0.374,0.3945,0.4122,0.4019,0.3924,0.3591,0.3485,0.3452,0.3754,0.3776,0.3797,0.3651,0.3589,0.3589,0.2771,0.2766,0.2761]},{"header":{"parameterUnit":"m.s-1","parameterCategory":2,"la1":30.2991,"la2":30.254,"lo1":-89.0895,"lo2":-89.0444,"dy":0.0017,"dx":0.0017,"nx":28,"ny":28,"refTime":"2026-02-11T09:00:00:Z","depth":"0","parameterNumber":3,"parameterNumberName":"V-component_of_CURRENTS"},"data":[0,0,0,0,0,0,0,0,0,0,0,0,0,0,0,0,0,0,0,0,0,0,0,0,0,0,0,0,0,0,0,0,0,0,0,0,0,0,0,0,0,0,0,0,0,0,0,0,0,0,0,0,0,0,0,0,0,0,-0.0316,-0.0317,0,-0.0393,-0.0394,-0.0395,-0.0451,-0.0451,-0.0451,-0.0452,-0.0566,-0.0568,-0.0571,0,0,0,0,0,0,0,0,0,0,0,0,0,-0.0264,-0.0264,-0.0316,-0.0317,-0.0318,-0.0393,-0.0394,-0.0395,-0.0451,-0.0451,-0.0452,-0.0452,-0.0565,-0.0568,-0.0571,0,0,0,0,0,0,0,0,0,0,0,0,0,-0.0309,-0.0264,-0.0316,-0.0354,-0.0358,-0.0393,-0.0394,-0.0395,-0.045,-0.0451,-0.0452,-0.0452,-0.0564,-0.0568,-0.0572,-0.0585,0,0,-0.0584,-0.0586,0,0,0,0,0,0,0,0,-0.0306,-0.0311,-0.0347,-0.0351,-0.0356,-0.0412,-0.0417,-0.046,-0.045,-0.0416,-0.0452,-0.0452,-0.0517,-0.0525,-0.0539,-0.0591,-0.0595,-0.0584,-0.0587,-0.0588,-0.059,0,0,0,0,0,0,0,-0.0303,-0.0308,-0.0348,-0.0348,-0.0353,-0.0383,-0.0389,-0.0426,-0.0464,-0.0419,-0.0423,-0.043,-0.0519,-0.0535,-0.0542,-0.0597,-0.0584,-0.0588,-0.059,-0.0592,-0.0673,-0.0672,0,0,0,0,0,0,-0.0288,-0.0305,-0.0345,-0.035,-0.0331,-0.0383,-0.0391,-0.0394,-0.0463,-0.0473,-0.043,-0.0432,-0.0527,-0.0537,-0.0546,-0.0558,-0.0588,-0.0592,-0.0595,-0.0673,-0.0673,-0.0672,0,0,0,0,0,0,-0.0287,-0.0291,-0.0342,-0.0329,-0.0337,-0.0383,-0.0387,-0.0395,-0.0411,-0.047,-0.0481,-0.0436,-0.0528,-0.054,-0.0574,-0.0563,-0.0594,-0.0598,-0.0673,-0.0673,-0.0673,-0.0586,0,0,0,0,0,0,-0.0285,-0.029,-0.0288,-0.0327,-0.0337,-0.0354,-0.0386,-0.0396,-0.0413,-0.0418,-0.0479,-0.049,-0.053,-0.0567,-0.0578,-0.0569,-0.0601,-0.0674,-0.0673,-0.0673,-0.059,-0.0583,-0.0578,0,0,0,0,0,-0.0283,-0.0271,-0.0288,-0.0293,-0.0333,-0.0353,-0.0361,-0.0397,-0.0413,-0.0414,-0.0455,-0.0488,-0.0572,-0.057,-0.0582,-0.0575,-0.0674,-0.0673,-0.0673,-0.0592,-0.0584,-0.0578,0,0,0,0,0,0,-0.0246,-0.0277,-0.0296,-0.0294,-0.032,-0.0362,-0.0364,-0.039,-0.0424,-0.0426,-0.0485,-0.0499,-0.0525,-0.0562,-0.0559,-0.0598,-0.0628,-0.063,-0.0563,-0.0556,-0.055,-0.0528,-0.0604,0,0,0,0,0,-0.0236,-0.0237,-0.0274,-0.0272,-0.0281,-0.0322,-0.0335,-0.0356,-0.0391,-0.0406,-0.0449,-0.0494,-0.0532,-0.0552,-0.0591,-0.0611,-0.0617,-0.0615,-0.0609,-0.0604,-0.0595,-0.0602,-0.0595,-0.067,-0.067,-0.067,0,0,-0.0221,-0.0238,-0.0239,-0.0264,-0.0286,-0.0288,-0.0331,-0.034,-0.0343,-0.0413,-0.043,-0.0475,-0.0533,-0.0555,-0.0569,-0.0584,-0.0578,-0.0603,-0.0597,-0.0592,-0.0601,-0.0593,-0.0586,-0.067,-0.067,-0.067,0,0,-0.0183,-0.0204,-0.0191,-0.0207,-0.0231,-0.0256,-0.0255,-0.0293,-0.0312,-0.0334,-0.0384,-0.0421,-0.0478,-0.0515,-0.0543,-0.0528,-0.0546,-0.0541,-0.0493,-0.05,-0.0493,-0.0487,-0.0449,-0.044,-0.0538,-0.0537,-0.0537,0,-0.0162,-0.0155,-0.019,-0.0181,-0.0188,-0.0236,-0.0222,-0.0247,-0.0291,-0.03,-0.0327,-0.0404,-0.0458,-0.0484,-0.0484,-0.0513,-0.0502,-0.0513,-0.0489,-0.0484,-0.048,-0.0442,-0.0434,-0.0533,-0.0534,-0.0534,-0.0535,0,-0.0117,-0.0113,-0.0104,-0.0111,-0.0121,-0.0116,-0.0152,-0.0164,-0.0195,-0.0223,-0.0253,-0.0324,-0.0369,-0.0394,-0.0438,-0.0437,-0.0432,-0.0477,-0.05,-0.0466,-0.0429,-0.0422,-0.0527,-0.0529,-0.053,-0.0531,0,0,-0.0064,-0.0071,-0.0067,-0.006,-0.0083,-0.0085,-0.0085,-0.0102,-0.0095,-0.0146,-0.0138,-0.0223,-0.026,-0.0294,-0.0352,-0.0367,-0.0329,-0.0403,-0.0405,-0.035,-0.0298,-0.0294,-0.0286,-0.0365,-0.0365,-0.0364,-0.027,0,-0.0018,0.0016,-0.0005,0.0025,0.004,-0.0,0.0003,-0.0017,-0.0043,-0.0046,-0.0115,-0.0135,-0.0221,-0.0235,-0.0266,-0.0316,-0.0312,-0.0347,-0.0352,-0.0351,-0.0342,-0.028,-0.029,-0.0208,-0.0263,-0.0262,-0.0261,0,0.0035,0.0048,0.009,0.0093,0.0096,0.0108,0.0109,0.0105,0.0084,0.0066,0.0034,-0.0016,-0.005,-0.0127,-0.0177,-0.019,-0.0233,-0.0271,-0.0269,-0.0294,-0.0336,-0.0261,-0.0194,-0.0423,-0.0251,-0.0252,-0.0253,0,0.0098,0.0113,0.0148,0.0151,0.0151,0.0165,0.0162,0.0147,0.0168,0.0149,0.0182,0.0106,0.0113,0.0023,-0.0062,-0.0114,-0.0088,-0.0176,-0.0201,-0.02,-0.0225,-0.0228,-0.0373,-0.0195,-0.0195,-0.0196,-0.0196,0,0.0157,0.0187,0.0183,0.0209,0.026,0.0227,0.0281,0.0269,0.0282,0.0342,0.0252,0.0309,0.0152,0.014,0.0017,-0.004,-0.0023,-0.0165,-0.0176,-0.0192,-0.0193,-0.041,-0.0545,-0.0192,-0.0193,-0.0193,-0.0194,0,0.0233,0.0225,0.0278,0.029,0.0301,0.0342,0.0383,0.0417,0.042,0.0506,0.0517,0.0499,0.0492,0.0358,0.0257,0.0102,-0.0103,-0.0012,0.0006,-0.0007,-0.03,-0.0427,-0.0549,-0.064,-0.0044,-0.0043,-0.0042,0,0.028,0.0311,0.0359,0.0394,0.0408,0.0457,0.0493,0.0497,0.0543,0.064,0.0699,0.0734,0.0797,0.0667,0.0407,0.0234,-0.0002,0.0059,-0.0079,-0.0293,-0.0444,-0.0544,-0.062,-0.0056,-0.0056,-0.0056,-0.0055,0,0.0365,0.0381,0.0417,0.0488,0.0539,0.0604,0.0656,0.0728,0.0755,0.0865,0.1015,0.1093,0.0993,0.0842,0.0576,0.0387,-0.0128,0.0059,-0.0182,-0.0474,-0.0572,-0.0671,-0.0115,-0.0053,-0.0053,-0.0053,-0.0053,-0.0053,0.0425,0.0463,0.0492,0.056,0.063,0.0716,0.0791,0.0884,0.102,0.1223,0.1276,0.1481,0.1182,0.0838,0.0541,-0.0068,-0.007,-0.0285,-0.0413,-0.0485,-0.0621,-0.0033,0.0011,0.0011,0.0011,0.0011,0.0011,0,0.0447,0.047,0.0547,0.0621,0.0705,0.0731,0.0863,0.097,0.117,0.1456,0.1648,0.1675,0.1256,0.0772,-0.0009,-0.0456,-0.0667,-0.0726,-0.091,-0.096,-0.0447,-0.0501,-0.0544,-0.0544,-0.0544,-0.0543,-0.0543,-0.0543,0.0446,0.0486,0.0515,0.0636,0.0711,0.0833,0.092,0.1144,0.1372,0.1778,0.2,0.2136,0.1741,0.0286,-0.0716,-0.0965,-0.1326,-0.1381,-0.1534,-0.1252,-0.1222,-0.1194,-0.128,-0.1484,-0.1486,-0.2006,-0.2011,-0.2016]}],[{"header":{"parameterUnit":"m.s-1","parameterCategory":2,"la1":30.2991,"la2":30.254,"lo1":-89.0895,"lo2":-89.0444,"dy":0.0017,"dx":0.0017,"nx":28,"ny":28,"refTime":"2026-02-11T09:00:00:Z","depth":"2","parameterNumber":2,"parameterNumberName":"U-component_of_CURRENTS"},"data":[0,0,0,0,0,0,0,0,0,0,0,0,0,0,0,0,0,0,0,0,0,0,0,0,0,0,0,0,0,0,0,0,0,0,0,0,0,0,0,0,0,0,0,0,0,0,0,0,0,0,0,0,0,0,0,0,0,0,0.2102,0.2102,0,0.2154,0.2155,0.2156,0.2173,0.2173,0.2172,0.2172,0.2208,0.221,0.2211,0,0,0,0,0,0,0,0,0,0,0,0,0,0.2032,0.2033,0.2102,0.2102,0.2103,0.2154,0.2155,0.2156,0.2173,0.2173,0.2172,0.2172,0.2208,0.2209,0.2211,0,0,0,0,0,0,0,0,0,0,0,0,0,0.2073,0.2034,0.2102,0.2116,0.2118,0.2154,0.2155,0.2156,0.2173,0.2173,0.2172,0.2171,0.2207,0.2209,0.2211,0.2236,0,0,0.2217,0.2218,0,0,0,0,0,0,0,0,0.2071,0.2076,0.2113,0.2115,0.2117,0.2155,0.2144,0.2181,0.2173,0.2154,0.2172,0.2171,0.2188,0.2192,0.2206,0.2237,0.2239,0.2218,0.2219,0.222,0.222,0,0,0,0,0,0,0,0.2068,0.2074,0.2124,0.2114,0.2116,0.2125,0.213,0.2151,0.2175,0.2156,0.2157,0.216,0.2189,0.2204,0.2207,0.2239,0.2218,0.2219,0.2221,0.2221,0.231,0.2311,0,0,0,0,0,0,0.2058,0.2071,0.2123,0.2126,0.209,0.2127,0.2133,0.2145,0.2175,0.2179,0.216,0.216,0.2201,0.2204,0.2208,0.2276,0.222,0.2222,0.2223,0.2309,0.231,0.2312,0,0,0,0,0,0,0.2056,0.2062,0.2121,0.2097,0.2105,0.2128,0.2142,0.2146,0.2176,0.2178,0.2182,0.2187,0.22,0.2205,0.2229,0.2276,0.2222,0.2224,0.2308,0.2309,0.2311,0.2387,0,0,0,0,0,0,0.2054,0.2062,0.2076,0.2097,0.2106,0.2161,0.2142,0.2147,0.2177,0.2178,0.2202,0.2204,0.22,0.2226,0.2231,0.2278,0.2226,0.2306,0.2308,0.231,0.2383,0.2392,0.2399,0,0,0,0,0,0.2052,0.2068,0.2077,0.2083,0.2122,0.2163,0.217,0.2184,0.2179,0.2206,0.2205,0.2204,0.2244,0.2229,0.2235,0.2282,0.2305,0.2308,0.231,0.238,0.239,0.2398,0,0,0,0,0,0,0.2041,0.2072,0.2081,0.2106,0.2142,0.2165,0.2188,0.2198,0.2221,0.222,0.2217,0.222,0.2263,0.2255,0.2239,0.2312,0.2276,0.228,0.2327,0.2337,0.2344,0.2343,0.2228,0,0,0,0,0,0.2046,0.2073,0.2103,0.2128,0.2146,0.2172,0.2192,0.2206,0.2223,0.2235,0.2243,0.2253,0.2278,0.2291,0.2308,0.2346,0.237,0.2379,0.2387,0.2393,0.2395,0.246,0.2474,0.232,0.232,0.232,0,0,0.2048,0.2069,0.2084,0.2129,0.2155,0.2186,0.2184,0.2224,0.2252,0.2234,0.2271,0.2284,0.2293,0.2337,0.2356,0.2336,0.2457,0.2397,0.2402,0.24,0.2464,0.2479,0.2493,0.2322,0.2322,0.2321,0,0,0.2059,0.2088,0.2112,0.2146,0.2191,0.221,0.2226,0.2261,0.2285,0.2321,0.2318,0.2349,0.2379,0.2398,0.241,0.2468,0.2496,0.2483,0.2523,0.2586,0.26,0.2612,0.2696,0.2714,0.2484,0.2485,0.2485,0,0.2059,0.2094,0.2128,0.216,0.2189,0.2221,0.2256,0.2288,0.2325,0.2351,0.2339,0.2406,0.2409,0.2475,0.2488,0.2489,0.2536,0.2491,0.2598,0.261,0.2622,0.2704,0.2724,0.2489,0.2488,0.2488,0.2487,0,0.209,0.212,0.214,0.219,0.223,0.2269,0.2314,0.2353,0.2377,0.2406,0.2479,0.2491,0.253,0.2545,0.2531,0.262,0.2635,0.2606,0.2579,0.2642,0.2725,0.2744,0.2494,0.2493,0.2492,0.2491,0,0,0.2076,0.2146,0.2153,0.2181,0.2252,0.2284,0.2345,0.2411,0.2458,0.2501,0.2565,0.2608,0.2627,0.2641,0.265,0.2696,0.2817,0.2686,0.2687,0.2776,0.2991,0.292,0.2934,0.2816,0.2819,0.2821,0.3031,0,0.2089,0.2138,0.2182,0.2238,0.2268,0.2329,0.2381,0.2447,0.2508,0.2576,0.2622,0.2687,0.2664,0.27,0.2745,0.28,0.2866,0.2764,0.2909,0.2914,0.2848,0.2952,0.2711,0.2869,0.305,0.3053,0.3055,0,0.21,0.2133,0.2178,0.2259,0.2282,0.2322,0.2426,0.2481,0.2587,0.2638,0.272,0.2767,0.286,0.2815,0.2967,0.2911,0.2958,0.2992,0.3,0.2914,0.2877,0.2827,0.2897,0.3087,0.3085,0.3082,0.308,0,0.2058,0.2135,0.2165,0.2192,0.2281,0.2324,0.2385,0.2494,0.2567,0.2691,0.2769,0.2873,0.2957,0.3023,0.3106,0.3054,0.3269,0.3203,0.3193,0.319,0.2999,0.2972,0.3309,0.3309,0.3308,0.3308,0.3307,0,0.2046,0.2079,0.2144,0.2161,0.2235,0.2298,0.2413,0.2479,0.2596,0.2685,0.28,0.2903,0.3015,0.3148,0.3174,0.3269,0.334,0.323,0.3242,0.302,0.2995,0.3172,0.3154,0.3315,0.3314,0.3312,0.3311,0,0.2008,0.2035,0.208,0.2165,0.2213,0.226,0.244,0.2505,0.2624,0.2748,0.2795,0.2979,0.3143,0.3262,0.3403,0.3377,0.3449,0.346,0.3206,0.3182,0.3312,0.3295,0.3468,0.3467,0.3467,0.3466,0.3466,0,0.1995,0.1987,0.2091,0.2128,0.2175,0.229,0.2367,0.2499,0.2557,0.2783,0.2803,0.3041,0.3152,0.3374,0.3397,0.348,0.3506,0.3283,0.3103,0.3336,0.3331,0.3315,0.3299,0.291,0.2905,0.2901,0.2897,0,0.1956,0.1976,0.2026,0.2105,0.217,0.2284,0.2384,0.242,0.255,0.2666,0.2783,0.2904,0.3139,0.3128,0.3267,0.3257,0.3238,0.3199,0.355,0.2883,0.2819,0.2811,0.2812,0.2861,0.2865,0.2868,0.287,0.2871,0.1939,0.1951,0.1997,0.2064,0.2144,0.2192,0.223,0.2304,0.2372,0.2448,0.2632,0.2747,0.2861,0.294,0.2904,0.2901,0.3087,0.2942,0.295,0.2964,0.2839,0.2774,0.2788,0.2791,0.2793,0.2796,0.2798,0,0.1891,0.1894,0.1961,0.2004,0.203,0.213,0.2171,0.2126,0.2117,0.2298,0.239,0.2312,0.2379,0.2507,0.245,0.2469,0.2406,0.2368,0.2257,0.2298,0.2332,0.2168,0.1943,0.194,0.1937,0.1934,0,0,0.1836,0.1835,0.185,0.1845,0.1899,0.186,0.1844,0.1801,0.1857,0.1893,0.1999,0.2253,0.2428,0.2135,0.2126,0.2024,0.2128,0.1951,0.2648,0.2558,0.2587,0.2692,0.249,0,0,0,0,0]},{"header":{"parameterUnit":"m.s-1","parameterCategory":2,"la1":30.2991,"la2":30.254,"lo1":-89.0895,"lo2":-89.0444,"dy":0.0017,"dx":0.0017,"nx":28,"ny":28,"refTime":"2026-02-11T09:00:00:Z","depth":"2","parameterNumber":3,"parameterNumberName":"V-component_of_CURRENTS"},"data":[0,0,0,0,0,0,0,0,0,0,0,0,0,0,0,0,0,0,0,0,0,0,0,0,0,0,0,0,0,0,0,0,0,0,0,0,0,0,0,0,0,0,0,0,0,0,0,0,0,0,0,0,0,0,0,0,0,0,-0.003,-0.003,0,-0.0095,-0.0096,-0.0097,-0.015,-0.015,-0.0151,-0.0151,-0.025,-0.0252,-0.0254,0,0,0,0,0,0,0,0,0,0,0,0,0,-0.001,-0.001,-0.003,-0.003,-0.0031,-0.0095,-0.0096,-0.0097,-0.015,-0.015,-0.0151,-0.0151,-0.0249,-0.0252,-0.0255,0,0,0,0,0,0,0,0,0,0,0,0,0,-0.0043,-0.001,-0.0029,-0.0063,-0.0067,-0.0095,-0.0096,-0.0098,-0.015,-0.015,-0.0151,-0.0151,-0.0248,-0.0252,-0.0255,-0.0267,0,0,-0.0266,-0.0267,0,0,0,0,0,0,0,0,-0.0041,-0.0044,-0.0058,-0.0061,-0.0065,-0.0113,-0.0126,-0.0155,-0.015,-0.0121,-0.0151,-0.0151,-0.0205,-0.0212,-0.0226,-0.0271,-0.0275,-0.0266,-0.0268,-0.027,-0.0271,0,0,0,0,0,0,0,-0.0039,-0.0042,-0.0058,-0.0058,-0.0062,-0.0095,-0.01,-0.0132,-0.0162,-0.0123,-0.0127,-0.013,-0.0208,-0.0223,-0.0229,-0.0277,-0.0266,-0.0269,-0.0271,-0.0272,-0.0336,-0.0336,0,0,0,0,0,0,-0.0022,-0.0039,-0.0056,-0.006,-0.0051,-0.0095,-0.0101,-0.0099,-0.0161,-0.017,-0.013,-0.0132,-0.0217,-0.0225,-0.0233,-0.0246,-0.027,-0.0273,-0.0275,-0.0337,-0.0336,-0.0336,0,0,0,0,0,0,-0.0021,-0.0023,-0.0053,-0.005,-0.0055,-0.0094,-0.0092,-0.01,-0.0117,-0.0165,-0.0175,-0.0139,-0.0217,-0.0228,-0.0252,-0.0251,-0.0274,-0.0278,-0.0337,-0.0336,-0.0336,-0.0275,0,0,0,0,0,0,-0.002,-0.0022,-0.0017,-0.0048,-0.0055,-0.0062,-0.0092,-0.0101,-0.0117,-0.0121,-0.0176,-0.0186,-0.0219,-0.0246,-0.0255,-0.0256,-0.028,-0.0338,-0.0337,-0.0336,-0.0278,-0.0273,-0.0269,0,0,0,0,0,-0.0019,-0.0004,-0.0017,-0.0019,-0.0046,-0.0062,-0.0068,-0.01,-0.0117,-0.0118,-0.0152,-0.0184,-0.0248,-0.0248,-0.0259,-0.0261,-0.0338,-0.0337,-0.0336,-0.028,-0.0274,-0.0269,0,0,0,0,0,0,0.0009,-0.0009,-0.0023,-0.0014,-0.0034,-0.0069,-0.0073,-0.0096,-0.0124,-0.0129,-0.0178,-0.0189,-0.0212,-0.0241,-0.024,-0.0276,-0.0299,-0.03,-0.0253,-0.0247,-0.0243,-0.0221,-0.0283,0,0,0,0,0,0.0018,0.0023,-0.0002,0.0004,-0.0003,-0.0039,-0.005,-0.007,-0.0097,-0.0111,-0.0147,-0.0185,-0.0216,-0.0234,-0.0266,-0.0283,-0.0306,-0.0291,-0.0287,-0.0282,-0.0272,-0.0305,-0.0302,-0.0333,-0.0333,-0.0333,0,0,0.0031,0.0022,0.0024,0.001,-0.001,-0.0008,-0.0047,-0.0057,-0.0059,-0.0117,-0.0131,-0.017,-0.0217,-0.0237,-0.025,-0.0261,-0.0284,-0.0281,-0.0277,-0.0269,-0.0304,-0.0301,-0.0298,-0.0332,-0.0332,-0.0332,0,0,0.0064,0.0051,0.0067,0.0055,0.0035,0.0015,0.0015,-0.0017,-0.0036,-0.0054,-0.0095,-0.0126,-0.0176,-0.0205,-0.0228,-0.0215,-0.0258,-0.0231,-0.0191,-0.0224,-0.0221,-0.0219,-0.0236,-0.0236,-0.0229,-0.0228,-0.0228,0,0.008,0.0096,0.0068,0.0079,0.0078,0.0031,0.0048,0.0022,-0.0014,-0.0023,-0.0048,-0.0117,-0.0159,-0.0183,-0.018,-0.0204,-0.0225,-0.0209,-0.0217,-0.0216,-0.0215,-0.0232,-0.0233,-0.0225,-0.0226,-0.0226,-0.0226,0,0.0121,0.0134,0.0143,0.0143,0.0136,0.0143,0.0111,0.0098,0.0067,0.004,0.0007,-0.0052,-0.0089,-0.0114,-0.0145,-0.0161,-0.0178,-0.0207,-0.0229,-0.0208,-0.0228,-0.023,-0.0221,-0.0222,-0.0223,-0.0224,0,0,0.0159,0.0172,0.0174,0.0192,0.0172,0.0177,0.0172,0.0158,0.0162,0.0106,0.0105,0.0035,-0.0002,-0.0029,-0.0079,-0.0112,-0.0128,-0.0152,-0.0155,-0.0163,-0.0188,-0.022,-0.0226,-0.0162,-0.0162,-0.0162,-0.02,0,0.02,0.0246,0.0235,0.0275,0.0297,0.0261,0.0265,0.0243,0.0212,0.0198,0.0123,0.0099,0.0031,0.0015,-0.0029,-0.0099,-0.0132,-0.0114,-0.0211,-0.0213,-0.0241,-0.023,-0.021,-0.0245,-0.0203,-0.0203,-0.0204,0,0.0242,0.0271,0.0322,0.0353,0.0358,0.0369,0.0373,0.0371,0.0331,0.0308,0.0261,0.0202,0.0147,0.0085,-0.0025,-0.0011,-0.0089,-0.0152,-0.0155,-0.0207,-0.0251,-0.0262,-0.0251,-0.0208,-0.0207,-0.0207,-0.0207,0,0.0287,0.0331,0.0379,0.0387,0.0409,0.0421,0.0426,0.0402,0.0421,0.0377,0.0387,0.0293,0.0269,0.0149,0.0016,-0.0004,-0.0102,-0.0147,-0.0251,-0.0253,-0.0266,-0.027,-0.0224,-0.0224,-0.0224,-0.0224,-0.0224,0,0.0332,0.0369,0.0405,0.0431,0.0482,0.0478,0.0513,0.0505,0.0516,0.0561,0.045,0.0467,0.0284,0.0201,0.0057,-0.0093,-0.0072,-0.0236,-0.0267,-0.0244,-0.0245,-0.024,-0.0241,-0.0226,-0.0225,-0.0225,-0.0225,0,0.0358,0.0385,0.0445,0.049,0.0503,0.0537,0.0579,0.0617,0.0615,0.0675,0.0673,0.0609,0.0498,0.0309,0.013,-0.0019,-0.0175,-0.0236,-0.019,-0.0216,-0.0316,-0.0314,-0.0357,-0.0359,-0.036,-0.0361,-0.0362,0,0.0366,0.0407,0.0481,0.0518,0.0535,0.058,0.062,0.0653,0.0725,0.0774,0.0836,0.0744,0.0701,0.0414,0.0129,-0.0133,-0.0165,-0.029,-0.034,-0.0305,-0.033,-0.0326,-0.0322,-0.0326,-0.0326,-0.0327,-0.0327,0,0.0384,0.0417,0.0469,0.0557,0.0616,0.0688,0.0769,0.0867,0.094,0.099,0.1085,0.1051,0.0766,0.0495,0.0111,-0.007,-0.0255,-0.0309,-0.0277,-0.03,-0.028,-0.0303,-0.03,-0.0331,-0.033,-0.033,-0.033,-0.033,0.0389,0.0437,0.052,0.0611,0.0689,0.0837,0.0954,0.1054,0.1198,0.1337,0.1279,0.1223,0.0885,0.0394,0.0069,-0.0277,-0.0275,-0.0399,-0.0395,-0.0392,-0.0387,-0.037,-0.0436,-0.0436,-0.0436,-0.0436,-0.0437,0,0.0411,0.0486,0.0566,0.0718,0.0855,0.0871,0.1089,0.1219,0.1424,0.1456,0.1489,0.1173,0.0834,0.0464,-0.0057,-0.0379,-0.0396,-0.0466,-0.0419,-0.0414,-0.041,-0.0404,-0.0459,-0.0459,-0.046,-0.0461,0,0,0.0432,0.0539,0.0609,0.0854,0.0965,0.1201,0.1363,0.1498,0.1583,0.1622,0.1562,0.1419,0.095,0.0573,0.0132,-0.0155,-0.0203,-0.0209,-0.0162,-0.005,-0.0041,-0.0349,-0.0332,0,0,0,0,0]}],[{"header":{"parameterUnit":"m.s-1","parameterCategory":2,"la1":30.2991,"la2":30.254,"lo1":-89.0895,"lo2":-89.0444,"dy":0.0017,"dx":0.0017,"nx":28,"ny":28,"refTime":"2026-02-11T09:00:00:Z","depth":"4","parameterNumber":2,"parameterNumberName":"U-component_of_CURRENTS"},"data":[0,0,0,0,0,0,0,0,0,0,0,0,0,0,0,0,0,0,0,0,0,0,0,0,0,0,0,0,0,0,0,0,0,0,0,0,0,0,0,0,0,0,0,0,0,0,0,0,0,0,0,0,0,0,0,0,0,0,0.127,0.1271,0,0.1322,0.1323,0.1323,0.1359,0.136,0.136,0.136,0.1438,0.1439,0.1441,0,0,0,0,0,0,0,0,0,0,0,0,0,0.1191,0.1192,0.127,0.1271,0.1272,0.1322,0.1323,0.1323,0.1359,0.136,0.136,0.1361,0.1437,0.1439,0.1441,0,0,0,0,0,0,0,0,0,0,0,0,0,0.1231,0.1193,0.127,0.1297,0.13,0.1322,0.1323,0.1323,0.1359,0.136,0.136,0.1361,0.1436,0.1439,0.1441,0.1443,0,0,0.1449,0.145,0,0,0,0,0,0,0,0,0.1228,0.1233,0.1292,0.1295,0.1299,0.1336,0.1323,0.1365,0.1359,0.1335,0.136,0.1361,0.1407,0.1412,0.1417,0.1447,0.145,0.1449,0.145,0.1452,0.1452,0,0,0,0,0,0,0,0.1226,0.1231,0.1289,0.1293,0.1297,0.1303,0.1309,0.1331,0.1365,0.1337,0.134,0.1348,0.1409,0.1415,0.1419,0.1452,0.1449,0.1451,0.1453,0.1454,0.1556,0.1557,0,0,0,0,0,0,0.1223,0.1229,0.1287,0.1291,0.1266,0.1304,0.1311,0.1322,0.1365,0.1372,0.1348,0.135,0.141,0.1416,0.1422,0.1502,0.1452,0.1454,0.1455,0.1554,0.1556,0.1557,0,0,0,0,0,0,0.1221,0.1228,0.1285,0.1262,0.127,0.1305,0.1317,0.1323,0.1359,0.1373,0.1381,0.1381,0.1411,0.1419,0.1468,0.1503,0.1455,0.1457,0.1553,0.1555,0.1557,0.1615,0,0,0,0,0,0,0.1218,0.1227,0.1243,0.1262,0.1271,0.1318,0.1317,0.1324,0.1362,0.1366,0.1404,0.141,0.1412,0.1464,0.147,0.1505,0.1459,0.1551,0.1554,0.1556,0.1611,0.1618,0.1624,0,0,0,0,0,0.1215,0.1229,0.1243,0.1251,0.1289,0.1319,0.1325,0.135,0.1363,0.1384,0.1411,0.141,0.1483,0.1467,0.1474,0.1511,0.155,0.1553,0.1556,0.1608,0.1617,0.1624,0,0,0,0,0,0,0.1205,0.1235,0.125,0.1275,0.1306,0.1327,0.1351,0.1368,0.1404,0.1417,0.1429,0.1437,0.1492,0.1492,0.1475,0.1545,0.1516,0.152,0.1553,0.1561,0.1568,0.156,0.1461,0,0,0,0,0,0.121,0.1231,0.1261,0.1286,0.1305,0.1335,0.1354,0.1373,0.1403,0.1421,0.1447,0.1474,0.1503,0.1526,0.1547,0.1589,0.1599,0.1615,0.1622,0.1627,0.1626,0.167,0.168,0.1566,0.1566,0.1566,0,0,0.1212,0.1234,0.1247,0.1286,0.1314,0.1342,0.1349,0.1389,0.1418,0.1423,0.148,0.1503,0.152,0.1566,0.159,0.1575,0.167,0.1631,0.1636,0.1631,0.1674,0.1685,0.1695,0.1568,0.1568,0.1568,0,0,0.122,0.1252,0.1271,0.13,0.1347,0.1365,0.1385,0.1425,0.1455,0.1507,0.1517,0.156,0.1607,0.1623,0.1637,0.1692,0.1703,0.1705,0.1737,0.178,0.179,0.1799,0.1846,0.1858,0.1709,0.1709,0.1709,0,0.1223,0.125,0.1282,0.1309,0.1334,0.138,0.1405,0.1443,0.1495,0.1523,0.1535,0.1615,0.1631,0.1683,0.1702,0.1708,0.1737,0.1707,0.1789,0.1798,0.1806,0.1852,0.1865,0.1712,0.1712,0.1711,0.1711,0,0.1236,0.127,0.1289,0.1336,0.1366,0.1401,0.1449,0.1495,0.154,0.1573,0.1649,0.168,0.1727,0.1741,0.1741,0.1806,0.1812,0.1794,0.177,0.1821,0.1867,0.1879,0.1717,0.1715,0.1715,0.1714,0,0,0.1214,0.1282,0.1293,0.1315,0.1383,0.1404,0.1468,0.1527,0.1576,0.1641,0.1703,0.1759,0.1791,0.1807,0.1823,0.1856,0.1942,0.1854,0.1855,0.1902,0.2055,0.1929,0.1931,0.1947,0.1949,0.1951,0.2072,0,0.1218,0.1255,0.1298,0.1345,0.1363,0.1429,0.1482,0.1545,0.1611,0.1686,0.1744,0.1813,0.1814,0.1853,0.1891,0.1932,0.1975,0.1911,0.1997,0.1999,0.1882,0.194,0.1957,0.2081,0.2084,0.2086,0.2087,0,0.1208,0.1237,0.1271,0.1339,0.1359,0.14,0.1487,0.1546,0.1658,0.1717,0.1802,0.1858,0.1944,0.1927,0.2038,0.2005,0.2036,0.2057,0.2062,0.1927,0.1895,0.2014,0.2109,0.2108,0.2106,0.2105,0.2103,0,0.1138,0.1215,0.1238,0.1262,0.1349,0.1388,0.1448,0.1551,0.1614,0.1747,0.1815,0.1921,0.1997,0.2054,0.2119,0.2095,0.2225,0.2195,0.2112,0.2105,0.2156,0.2145,0.226,0.226,0.226,0.2259,0.2259,0,0.1098,0.1121,0.1213,0.1224,0.1271,0.1351,0.1424,0.1503,0.163,0.1711,0.1834,0.1909,0.2034,0.2124,0.2156,0.2181,0.2268,0.2126,0.2125,0.218,0.217,0.2166,0.2153,0.2264,0.2263,0.2262,0.2261,0,0.0999,0.1064,0.1095,0.1197,0.1232,0.1265,0.1399,0.1454,0.1596,0.1709,0.1763,0.1935,0.2056,0.2159,0.2265,0.2222,0.2255,0.2237,0.2315,0.2315,0.2099,0.2089,0.2158,0.2154,0.2151,0.2149,0.2147,0,0.094,0.0948,0.1053,0.1077,0.1125,0.12,0.1254,0.141,0.148,0.1704,0.1747,0.1923,0.2025,0.2097,0.2191,0.2262,0.223,0.2238,0.2134,0.2096,0.2089,0.2083,0.2076,0.2142,0.2141,0.2141,0.214,0,0.0826,0.088,0.0914,0.0974,0.103,0.1088,0.1187,0.1235,0.1431,0.1576,0.1711,0.1803,0.1934,0.2026,0.2103,0.2135,0.2225,0.2206,0.2211,0.2114,0.2078,0.2073,0.207,0.213,0.2131,0.2132,0.2133,0,0.0744,0.0744,0.081,0.0858,0.0919,0.0961,0.1035,0.1147,0.125,0.1518,0.1552,0.1751,0.1912,0.1961,0.2024,0.206,0.2023,0.1953,0.197,0.1983,0.1866,0.1791,0.1762,0,0,0,0,0,0.0652,0.0652,0.0687,0.0742,0.0806,0.0851,0.0983,0.1075,0.1277,0.1337,0.1453,0.1574,0.1702,0.1792,0.1797,0.1925,0.201,0.1918,0.1931,0.2073,0.2085,0.1962,0,0,0,0,0,0,0.0587,0.0608,0.0645,0.0641,0.0661,0.0727,0.0808,0.0948,0.1005,0.1219,0.1299,0.1463,0.1604,0.1681,0.1757,0.1786,0.1762,0.2042,0.2038,0.2066,0.2077,0.2086,0.1965,0,0,0,0,0]},{"header":{"parameterUnit":"m.s-1","parameterCategory":2,"la1":30.2991,"la2":30.254,"lo1":-89.0895,"lo2":-89.0444,"dy":0.0017,"dx":0.0017,"nx":28,"ny":28,"refTime":"2026-02-11T09:00:00:Z","depth":"4","parameterNumber":3,"parameterNumberName":"V-component_of_CURRENTS"},"data":[0,0,0,0,0,0,0,0,0,0,0,0,0,0,0,0,0,0,0,0,0,0,0,0,0,0,0,0,0,0,0,0,0,0,0,0,0,0,0,0,0,0,0,0,0,0,0,0,0,0,0,0,0,0,0,0,0,0,0.0045,0.0045,0,0.0008,0.0007,0.0007,-0.0024,-0.0024,-0.0024,-0.0025,-0.0087,-0.0089,-0.009,0,0,0,0,0,0,0,0,0,0,0,0,0,0.0053,0.0053,0.0045,0.0045,0.0044,0.0008,0.0007,0.0007,-0.0024,-0.0024,-0.0025,-0.0025,-0.0087,-0.0089,-0.009,0,0,0,0,0,0,0,0,0,0,0,0,0,0.0036,0.0054,0.0045,0.0025,0.0023,0.0008,0.0007,0.0007,-0.0024,-0.0024,-0.0025,-0.0025,-0.0086,-0.0089,-0.0091,-0.0096,0,0,-0.0097,-0.0098,0,0,0,0,0,0,0,0,0.0037,0.0035,0.0028,0.0026,0.0024,-0.0003,-0.0013,-0.0029,-0.0024,-0.0007,-0.0025,-0.0025,-0.0061,-0.0065,-0.0072,-0.0099,-0.0101,-0.0097,-0.0099,-0.01,-0.01,0,0,0,0,0,0,0,0.0038,0.0037,0.003,0.0028,0.0025,0.0005,0.0003,-0.0016,-0.0032,-0.0008,-0.001,-0.0013,-0.0063,-0.007,-0.0074,-0.0102,-0.0097,-0.0099,-0.01,-0.0101,-0.0144,-0.0144,0,0,0,0,0,0,0.0046,0.0038,0.0031,0.0028,0.003,0.0006,0.0003,0.0005,-0.0031,-0.0037,-0.0013,-0.0015,-0.0066,-0.0071,-0.0076,-0.0084,-0.01,-0.0102,-0.0103,-0.0144,-0.0144,-0.0144,0,0,0,0,0,0,0.0047,0.0046,0.0032,0.0032,0.0029,0.0006,0.0009,0.0005,-0.0003,-0.0035,-0.0041,-0.0016,-0.0066,-0.0073,-0.0089,-0.0087,-0.0102,-0.0104,-0.0144,-0.0144,-0.0144,-0.0101,0,0,0,0,0,0,0.0047,0.0047,0.0052,0.0033,0.003,0.0029,0.001,0.0004,-0.0004,-0.0006,-0.0039,-0.0046,-0.0067,-0.0085,-0.0091,-0.009,-0.0106,-0.0144,-0.0144,-0.0144,-0.0103,-0.01,-0.0097,0,0,0,0,0,0.0048,0.006,0.0052,0.0051,0.0037,0.003,0.0026,0.0007,-0.0003,-0.0002,-0.0025,-0.0045,-0.0088,-0.0087,-0.0093,-0.0093,-0.0144,-0.0144,-0.0144,-0.0104,-0.01,-0.0097,0,0,0,0,0,0,0.0066,0.0057,0.0049,0.0057,0.0046,0.0025,0.0025,0.0011,-0.0006,-0.0009,-0.0041,-0.0048,-0.0063,-0.0082,-0.0081,-0.0105,-0.012,-0.0121,-0.0088,-0.0085,-0.0082,-0.0066,-0.0108,0,0,0,0,0,0.0073,0.008,0.0064,0.0071,0.0067,0.0046,0.004,0.0028,0.0011,0.0003,-0.0021,-0.0046,-0.0066,-0.0078,-0.0099,-0.011,-0.0137,-0.0115,-0.0112,-0.0109,-0.0101,-0.014,-0.014,-0.0143,-0.0143,-0.0143,0,0,0.0082,0.0078,0.0082,0.0075,0.0064,0.0067,0.0041,0.0038,0.0038,-0.0001,-0.0008,-0.0036,-0.0067,-0.008,-0.0089,-0.0096,-0.0124,-0.0109,-0.0106,-0.0099,-0.014,-0.014,-0.0139,-0.0142,-0.0142,-0.0142,0,0,0.0106,0.01,0.0113,0.0108,0.0097,0.0085,0.0086,0.0066,0.0055,0.0044,0.0015,-0.0007,-0.0039,-0.006,-0.0075,-0.0067,-0.0107,-0.0078,-0.005,-0.0088,-0.0088,-0.0089,-0.0127,-0.0131,-0.0076,-0.0076,-0.0076,0,0.0117,0.0133,0.0115,0.0125,0.0128,0.0096,0.0112,0.0095,0.0072,0.0067,0.0048,0.0,-0.0028,-0.0044,-0.0043,-0.006,-0.0089,-0.006,-0.0084,-0.0085,-0.0086,-0.0125,-0.013,-0.0074,-0.0074,-0.0075,-0.0075,0,0.0148,0.0162,0.0169,0.0173,0.0173,0.018,0.016,0.0152,0.0132,0.0112,0.0089,0.0046,0.0019,0.0002,-0.0019,-0.0038,-0.0059,-0.0076,-0.0091,-0.0083,-0.0125,-0.0131,-0.0071,-0.0072,-0.0072,-0.0073,0,0,0.0169,0.0189,0.0192,0.021,0.0201,0.0208,0.0207,0.02,0.0204,0.0162,0.0158,0.0112,0.0082,0.0064,0.0027,-0.0008,-0.0046,-0.0041,-0.0044,-0.0075,-0.0134,-0.0144,-0.0152,-0.0069,-0.007,-0.0071,-0.0161,0,0.0199,0.024,0.0237,0.0274,0.0296,0.0274,0.0281,0.0268,0.0244,0.0229,0.0171,0.0153,0.0106,0.0095,0.005,-0.0021,-0.0059,-0.002,-0.014,-0.0143,-0.0151,-0.0159,-0.0073,-0.0166,-0.0167,-0.0168,-0.0169,0,0.0228,0.0256,0.0304,0.0339,0.0345,0.036,0.037,0.0371,0.0336,0.0315,0.0274,0.0228,0.017,0.0131,0.0009,0.0034,-0.004,-0.0101,-0.0106,-0.0133,-0.0165,-0.0176,-0.0181,-0.018,-0.0179,-0.0178,-0.0177,0,0.026,0.0302,0.0347,0.0357,0.0386,0.0404,0.0414,0.0399,0.0413,0.037,0.0367,0.0282,0.0244,0.0137,0.0007,0.0007,-0.0134,-0.015,-0.0231,-0.0233,-0.0215,-0.0213,-0.023,-0.023,-0.023,-0.023,-0.0229,0,0.0293,0.0328,0.0369,0.0396,0.0453,0.0451,0.0499,0.0488,0.0484,0.05,0.0417,0.0399,0.0244,0.0143,0.0021,-0.0128,-0.0127,-0.0226,-0.0256,-0.0196,-0.0191,-0.022,-0.0217,-0.0233,-0.0232,-0.0232,-0.0231,0,0.0317,0.034,0.0402,0.0452,0.0473,0.0512,0.0569,0.06,0.058,0.0596,0.0587,0.0483,0.0342,0.0182,-0.0001,-0.01,-0.0244,-0.0294,-0.0219,-0.0243,-0.0321,-0.0315,-0.039,-0.0391,-0.0392,-0.0393,-0.0393,0,0.0333,0.0368,0.045,0.0493,0.0521,0.0584,0.0632,0.0647,0.0675,0.0645,0.0649,0.0529,0.0438,0.0175,-0.0007,-0.0247,-0.0277,-0.0348,-0.0333,-0.0315,-0.0337,-0.033,-0.0323,-0.0395,-0.0395,-0.0395,-0.0396,0,0.037,0.04,0.0453,0.0546,0.0612,0.0688,0.0747,0.0774,0.0782,0.0772,0.0706,0.0565,0.04,0.018,-0.001,-0.018,-0.0301,-0.0358,-0.0357,-0.0344,-0.0322,-0.0341,-0.0334,-0.0399,-0.0399,-0.0398,-0.0398,0,0.0401,0.0444,0.0519,0.0594,0.0679,0.0754,0.0789,0.0816,0.0842,0.0799,0.0772,0.059,0.048,0.0213,0.0036,-0.0136,-0.0176,-0.0218,-0.0225,-0.0224,-0.0153,-0.01,-0.0134,0,0,0,0,0,0.043,0.0481,0.0561,0.065,0.073,0.0779,0.0848,0.087,0.0876,0.0847,0.0812,0.0657,0.0386,0.0258,0.0087,0.0007,-0.0214,-0.0201,-0.0267,-0.0417,-0.0413,-0.036,0,0,0,0,0,0,0.0455,0.0532,0.0568,0.0674,0.0734,0.0834,0.0877,0.0887,0.0861,0.0835,0.0692,0.0619,0.035,0.0486,0.0084,0.0029,-0.0035,-0.0331,-0.0335,-0.0419,-0.0416,-0.0413,-0.0357,0,0,0,0,0]}]]